This is the latest recevied weather packets stored in our database for station/object KC5TIL-3. If no packets are shown the sender has not sent any weather packets the latest 10 day(s).
| Time | Temp. | Humidity | Pressure | Rain* | Wind** | Luminosity | Snow |
|---|---|---|---|---|---|---|---|
| 1777941241 | 25.56° C | 30% | 1003.8 hPa | 0 mm | 3.58 m/s, 165° | - | - |
| 1777940943 | 25.56° C | 30% | 1003.8 hPa | 0 mm | 3.58 m/s, 250° | - | - |
| 1777940643 | 25.56° C | 30% | 1003.8 hPa | 0 mm | 4.02 m/s, 200° | - | - |
| 1777940344 | 25.56° C | 30% | 1003.8 hPa | 0 mm | 4.47 m/s, 187° | - | - |
| 1777940046 | 25.56° C | 30% | 1003.8 hPa | 0 mm | 4.92 m/s, 201° | - | - |
| 1777939745 | 26.11° C | 30% | 1003.8 hPa | 0 mm | 3.58 m/s, 195° | - | - |
| 1777939147 | 26.11° C | 30% | 1003.8 hPa | 0 mm | 3.58 m/s, 198° | - | - |
| 1777938840 | 26.11° C | 29% | 1003.8 hPa | 0 mm | 3.13 m/s, 150° | - | - |
| 1777938541 | 26.11° C | 28% | 1003.8 hPa | 0 mm | 4.02 m/s, 149° | - | - |
| 1777938243 | 26.11° C | 28% | 1003.8 hPa | 0 mm | 4.92 m/s, 138° | - | - |
| 1777937942 | 26.11° C | 28% | 1003.8 hPa | 0 mm | 4.02 m/s, 236° | - | - |
| 1777937643 | 26.67° C | 26% | 1003.8 hPa | 0 mm | 4.47 m/s, 211° | - | - |
| 1777937345 | 26.67° C | 26% | 1003.8 hPa | 0 mm | 3.13 m/s, 220° | - | - |
| 1777936746 | 26.67° C | 27% | 1003.8 hPa | 0 mm | 4.02 m/s, 158° | - | - |
| 1777936448 | 26.67° C | 26% | 1003.8 hPa | 0 mm | 3.58 m/s, 184° | - | - |
| 1777936147 | 26.11° C | 25% | 1003.8 hPa | 0 mm | 4.92 m/s, 128° | - | - |
| 1777934951 | 26.67° C | 23% | 1004.8 hPa | 0 mm | 4.47 m/s, 208° | - | - |
| 1777934048 | 26.67° C | 23% | 1004.8 hPa | 0 mm | 5.81 m/s, 212° | - | - |
| 1777933751 | 26.67° C | 23% | 1004.8 hPa | 0 mm | 4.02 m/s, 161° | - | - |
| 1777933450 | 26.67° C | 23% | 1004.8 hPa | 0 mm | 3.58 m/s, 137° | - | - |
| 1777933151 | 26.67° C | 23% | 1004.8 hPa | 0 mm | 4.92 m/s, 231° | - | - |
| 1777932551 | 26.67° C | 23% | 1004.8 hPa | 0 mm | 4.02 m/s, 186° | - | - |
| 1777932253 | 26.67° C | 23% | 1004.8 hPa | 0 mm | 4.92 m/s, 193° | - | - |
| 1777931955 | 26.67° C | 23% | 1004.8 hPa | 0 mm | 4.92 m/s, 221° | - | - |
| 1777931654 | 27.22° C | 22% | 1004.8 hPa | 0 mm | 3.58 m/s, 191° | - | - |
* Rain latest hour (hover to see other rain measurements)
** Current wind speed in m/s (hover to see current wind gust speed)